Showing default

GLOBALSTAR M003, 25165

Orbit data source: Space-Track

GLOBALSTAR M003, 25165 is a payload satellite owned by Globalstar (US) in LEO that was launched on Sat, 14 Feb 1998 UTC via a DELTA 7420-10C launch vehicle from the Air Force Eastern Test Range (AFETR). Payload-class satellites include a variety of spacecraft equipped with specific instruments for various scientific and technological missions. These include communications satellites like Starlink; space stations such as the ISS; scientific satellites like the Hubble; Earth observation satellites from companies like Planet Labs, Umbra, and HawkEye 360; GPS; miniature CubeSats for education and research; and military/defense satellites.

Loading next visibility...
Identifier
25165, 1998-008D
Orbit
LEO
Country
Flag of UnknownUnknown / GLOB
Related business
Manufacturer
SS/Loral
Mission
Non-operational Commercial Communications
Bus & Motor
LS-400, Unknown motor
Mass
450 kg wet, 380 kg dry
Launch date (UTC)
1998-02-14 (28 years ago)
Launch vehicle
DELTA 7420-10C
Launch site
Air Force Eastern Test Range (AFETR)
Object type
Payload
Rocket body
Debris
Shape & HBR
Box + 2 Pan, 6.0 m
Radar Cross Section
5.587 m², Large (>1 m²)

Expand to show TLE details & history
Last TLE update: 20 hours ago

TLE from 20 hours ago
0 GLOBALSTAR M003
1 25165U 98008D   25305.28566215 -.00000209  00000-0 -12740-2 0  9993
2 25165  51.9903 148.8070 0007465 202.6399 329.3940 12.12051342249847
Epoch: 2025-11-01T06:51Z
TLE epoch observation values (Epoch: 2025-11-01T06:51:21.209Z)
Latitude
6.27013°
Longitude
-179.75168°
Altitude
1,622.28 km
Speed
7.063 km/s
True Right ascension
21h 35m 37s
True Declination
6° 14' 13"
Sunlit
Object was in daylight at epoch
Visualization orbit readout
Latitude
Unknown
Longitude
Unknown
Altitude
Unknown
Speed
Unknown
Apparent Right ascension
Unknown
Apparent Declination
Unknown
Sunlit
N/A
Visualization observer readout
Local Sidereal Time
23:04:28
Azimuth
Unknown
Elevation
Unknown
Doppler factor
Unknown
Orbital elements
Apogee altitude
1,633.711 km
Perigee altitude
1,621.758 km
Semi-major axis
8,005.872 km
Eccentricity
0.00075
Inclination
51.9903°
RAAN
148.807°
Arg. of periapsis
202.6399°
True anomaly
329.35041°
Mean anomaly
329.394°
Eccentric anomaly
329.37221°
Mean motion
3.02991 °/min
Orbital period
118.82 mins
BSTAR
-0.001274
Loading maneuver chart data...
Computing Atmospheric mass density...
Loading historical data...
Loading historical data...
Loading historical data...
Loading historical data...
Loading historical data...
Loading historical data...
Loading historical data...

Documentation

Showing up to 5 results
|